This is the latest recevied weather packets stored in our database for station/object S57PNX-8. If no packets are shown the sender has not sent any weather packets the latest 10 day(s).
| Time | Temp. | Humidity | Pressure | Rain* | Wind** | Luminosity | Snow |
|---|---|---|---|---|---|---|---|
| 1777646402 | 17.78° C | 33% | 1029 hPa | - | - | - | - |
| 1777646340 | 17.78° C | 33% | 1029 hPa | - | - | - | - |
| 1777645441 | 17.22° C | 33% | 1029.1 hPa | - | - | - | - |
| 1777644541 | 17.22° C | 35% | 1029.2 hPa | - | - | - | - |
| 1777643679 | 17.22° C | 34% | 1029.3 hPa | - | - | - | - |
| 1777643641 | 17.22° C | 34% | 1029.3 hPa | - | - | - | - |
| 1777642739 | 16.67° C | 34% | 1029.3 hPa | - | - | - | - |
| 1777641836 | 16.67° C | 35% | 1029.4 hPa | - | - | - | - |
| 1777640938 | 16.11° C | 35% | 1029.6 hPa | - | - | - | - |
| 1777640038 | 16.11° C | 33% | 1029.7 hPa | - | - | - | - |
| 1777639139 | 16.11° C | 35% | 1029.8 hPa | - | - | - | - |
| 1777638249 | 15.56° C | 35% | 1030 hPa | - | - | - | - |
| 1777637341 | 15.56° C | 36% | 1029.9 hPa | - | - | - | - |
| 1777636443 | 15° C | 36% | 1030 hPa | - | - | - | - |
| 1777635544 | 14.44° C | 36% | 1030.2 hPa | - | - | - | - |
| 1777634645 | 13.89° C | 35% | 1030.4 hPa | - | - | - | - |
| 1777633752 | 13.33° C | 36% | 1030.4 hPa | - | - | - | - |
| 1777632848 | 13.33° C | 34% | 1030.5 hPa | - | - | - | - |
| 1777631944 | 12.78° C | 35% | 1030.6 hPa | - | - | - | - |
| 1777631044 | 12.78° C | 36% | 1030.7 hPa | - | - | - | - |
| 1777630202 | 12.22° C | 37% | 1030.7 hPa | - | - | - | - |
| 1777630152 | 12.22° C | 37% | 1030.7 hPa | - | - | - | - |
| 1777629349 | 12.22° C | 38% | 1030.8 hPa | - | - | - | - |
| 1777629248 | 12.22° C | 38% | 1030.8 hPa | - | - | - | - |
| 1777628347 | 11.67° C | 35% | 1030.7 hPa | - | - | - | - |
* Rain since midnight (hover to see other rain measurements)
** Current wind speed in m/s (hover to see current wind gust speed)